Location: Kellogg
(38.0159°N, 90.0546°W)
Time: 13:46:44
(UTC+00:00)

ARIANE 6 FM1 Upper Stage - Pass Details

Date: 30 January 2026
Orbit: 522 x 609 km, 62.0° (Epoch: 8 February)

Event Time Altitude Azimuth Distance (km) Brightness Sun altitude
Rises 23:55:29 0° 263° (W) 2,708 8.3 -7.4°
Reaches altitude 10° 23:58:50 10° 292° (WNW) 1,799 6.1 -8.0°
Maximum altitude 00:00:43 13° 320° (NW) 1,615 5.3 -8.4°
Drops below altitude 10° 00:02:35 10° 348° (NNW) 1,785 5.2 -8.7°
Sets 00:05:53 0° 18° (NNE) 2,666 5.8 -9.4°
